Location: Unspecified
(54.1780°N, 0.0000°E)
Time: 02:10:23
(UTC+00:00)

Tiros 1 - Pass Details

Date: 25 June 2019
Orbit: 630 x 664 km, 48.4° (Epoch: 23 July)

Event Time Altitude Azimuth Distance (km) Brightness Sun altitude
Rises 00:40:48 0° 252° (WSW) 2,947 10.3 -12.0°
Reaches altitude 10° 00:43:14 10° 245° (WSW) 2,032 9.4 -11.9°
Maximum altitude 00:47:36 41° 176° (S) 929 7.5 -11.8°
Drops below altitude 10° 00:51:57 10° 107° (ESE) 2,016 9.6 -11.7°
Sets 00:54:22 0° 100° (E) 2,921 10.6 -11.6°
